Weather History for Colorado Springs, CO

Change the Weather History Date:

Thursday, January 24, 2013

  Actual Average Record
Temperature  
Mean Temperature 47 °F 30 °F  
Max Temperature 66 °F 43 °F 66 °F (2013)
Min Temperature 28 °F 18 °F -6 °F (1949)
Degree Days  
Heating Degree Days 18 34  
Month to date heating degree days 856 826  
Since 1 July heating degree days 3140 3398  
Cooling Degree Days 0 0  
Month to date cooling degree days 0 0  
Year to date cooling degree days 0 0  
Moisture  
Dew Point 4 °F    
Average Humidity 21    
Maximum Humidity 37    
Minimum Humidity 5    
Precipitation  
Precipitation 0.00 in 0.01 in 0.43 in (1921)
Month to date precipitation 0.01 0.24  
Year to date precipitation 0.01 0.24  
Snow  
Snow 0.00 in 0.20 in 7.00 in (1921)
Month to date snowfall 0.4 4.3  
Since 1 July snowfall 6.7 17.8  
Snow Depth 0.00 in    
Sea Level Pressure  
Sea Level Pressure 30.03 in    
Wind  
Wind Speed 7 mph (NNW)    
Max Wind Speed 25 mph    
Max Gust Speed 33 mph    
Visibility 10 miles    
Events      
T = Trace of Precipitation, MM = Missing Value Source: NWS Daily Summary

Daily Weather History Graph

Daily Weather History Graph

Search for Another Location

Airport:

Trip Planner

Search our weather history database for the weather conditions in past years. The results will help you decide how hot, cold, wet, or windy it might be!

Date:

Astronomy

Jan. 24, 2013 Rise Set
Actual Time 7:10 AM MST 5:11 PM MST
Civil Twilight 6:42 AM MST 5:40 PM MST
Nautical Twilight 6:09 AM MST 6:12 PM MST
Astronomical Twilight 5:38 AM MST 6:43 PM MST
Moon 3:16 PM MST (1/24) 5:09 AM MST (1/24)
Length of Visible Light 10h 57m
Length of Day
10h 00m
Waxing Gibbous, 95% of the Moon is Illuminated
Jan 24
Waxing Gibbous
Jan 26
Full
Feb 3
Last Quarter
Feb 10
New
Feb 17
First Quarter

Hourly Weather History & Observations

Time (MST) Temp. Windchill Dew Point Humidity Pressure Visibility Wind Dir Wind Speed Gust Speed Precip Events Conditions
12:54 AM 37.0 °F 34.5 °F -4.0 °F 17% 30.12 in 10.0 mi SSW 3.5 mph - N/A   Clear
1:54 AM 34.0 °F - 1.0 °F 25% 30.09 in 10.0 mi Calm Calm - N/A   Partly Cloudy
2:54 AM 32.0 °F - 3.0 °F 29% 30.08 in 10.0 mi Calm Calm - N/A   Clear
3:54 AM 30.0 °F - 3.9 °F 33% 30.08 in 10.0 mi Calm Calm - N/A   Clear
4:54 AM 28.9 °F 25.2 °F 3.0 °F 33% 30.07 in 10.0 mi Variable 3.5 mph - N/A   Partly Cloudy
5:54 AM 32.0 °F 26.4 °F 3.9 °F 31% 30.08 in 10.0 mi North 5.8 mph - N/A   Partly Cloudy
6:54 AM 32.0 °F 25.6 °F 1.9 °F 28% 30.09 in 10.0 mi NW 6.9 mph - N/A   Clear
7:54 AM 43.0 °F 41.3 °F -5.1 °F 13% 30.03 in 10.0 mi NE 3.5 mph - N/A   Clear
8:54 AM 51.1 °F - -4.0 °F 10% 30.03 in 10.0 mi Calm Calm - N/A   Partly Cloudy
9:54 AM 53.1 °F - -7.1 °F 8% 30.04 in 10.0 mi South 4.6 mph - N/A   Partly Cloudy
10:54 AM 60.1 °F - -13.0 °F 5% 30.01 in 10.0 mi South 3.5 mph - N/A   Clear
11:54 AM 63.0 °F - -6.0 °F 6% 29.96 in 10.0 mi South 9.2 mph - N/A   Partly Cloudy
12:54 PM 64.0 °F - -0.0 °F 8% 29.91 in 10.0 mi SE 10.4 mph - N/A   Partly Cloudy
1:54 PM 63.0 °F - 5.0 °F 10% 29.90 in 10.0 mi SE 9.2 mph - N/A   Partly Cloudy
2:45 PM 64.4 °F - 17.6 °F 16% 29.98 in 10.0 mi NW 24.2 mph 33.4 mph N/A   Scattered Clouds
2:54 PM 64.9 °F - 18.0 °F 16% 29.90 in 10.0 mi NW 17.3 mph 28.8 mph N/A   Scattered Clouds
3:54 PM 64.9 °F - 19.0 °F 17% 29.91 in 10.0 mi WNW 23.0 mph 29.9 mph N/A   Scattered Clouds
4:54 PM 61.0 °F - 21.0 °F 21% 29.97 in 10.0 mi WNW 15.0 mph 24.2 mph N/A   Partly Cloudy
5:54 PM 48.9 °F - -2.9 °F 12% 30.06 in 10.0 mi NW 5.8 mph - N/A   Scattered Clouds
6:54 PM 48.0 °F - -2.0 °F 13% 30.09 in 10.0 mi NNW 8.1 mph - N/A   Partly Cloudy
7:54 PM 45.0 °F 39.7 °F -2.9 °F 14% 30.06 in 10.0 mi NNE 10.4 mph - N/A   Partly Cloudy
8:54 PM 43.0 °F 37.2 °F 8.1 °F 24% 30.07 in 10.0 mi NNE 10.4 mph - N/A   Clear
9:54 PM 46.9 °F - 16.0 °F 29% 30.05 in 10.0 mi Variable 3.5 mph - N/A   Clear
10:54 PM 39.0 °F 36.8 °F 16.0 °F 39% 30.07 in 10.0 mi NNE 3.5 mph - N/A   Clear
11:54 PM 39.0 °F 33.4 °F 12.0 °F 33% 30.04 in 10.0 mi NE 8.1 mph - N/A   Clear